2025-274N

Last updated on Wed Dec 31 2025 00:02:07 GMT+0000 (Coordinated Universal Time)

1 66662U 25274N 25364.56171177 .00005084 00000+0 49033-3 0 9999 2 66662 97.7405 291.5019 0014042 215.6174 144.4110 14.93261697 5068
UTC large
Height (km)
Speed (km/s)
/
Latitude / Longitude
Inclination (degrees)
Orbital Period (minutes)
Azimuth
Elevation
Range (km)
Doppler Factor

Next 0 passes for location: London (51.5072 / 0.1276)

Sorry there are no passes over London.